Wind_Speed
31 33 31 31 30 30 28 26 24 25 24 20 19 17 15 13 13 16 10 6 3 4 8 8 9 7 9 9 7 5 7 6 9 7 6 3 7 5 4 3 3 5 3
36 35 34 33 31 32 30 31 28 26 25 19 20 17 12 13 17 14 8 5 5 3 6 6 7 3 7 9 4 10 9 5 6 3 6 4 4 9 5 5 1 4 2
39 39 37 36 35 35 33 34 32 28 26 23 23 19 18 15 10 18 13 8 9 5 9 6 9 10 6 5 9 11 3 3 3 2 5 4 3 6 3 2 6 2 4
39 39 38 37 38 37 36 33 36 30 30 27 24 22 19 16 18 17 11 9 10 7 6 5 10 10 10 8 4 7 7 8 6 3 1 4 1 1 3 5 7 6 4
41 42 43 41 39 38 39 35 35 35 31 33 26 26 22 21 17 15 16 18 12 11 10 8 7 9 8 6 9 8 8 5 4 5 4 1 1 1 3 1 9 3 2
41 43 43 42 39 38 39 37 37 39 37 35 31 29 29 22 16 16 18 18 11 13 14 12 8 7 10 10 9 8 11 11 9 4 11 4 6 5 6 3 6 6 3
40 42 43 43 43 42 42 42 41 39 40 38 37 34 31 27 24 19 18 15 18 12 14 16 12 9 8 10 8 7 11 14 13 9 10 5 4 4 4 1 6 1 3
39 41 46 46 48 46 46 45 45 42 41 42 40 39 35 32 29 19 24 17 16 21 17 18 12 10 10 9 9 7 10 8 12 16 13 6 3 0 2 3 5 6 5
9 39 43 46 46 47 48 48 48 45 42 44 43 43 41 36 34 28 23 24 22 14 17 17 13 13 13 10 10 7 7 11 11 9 16 13 10 6 6 7 7 8 12
37 41 41 44 45 48 46 46 45 47 45 41 45 44 44 42 37 33 28 25 25 21 15 18 17 15 16 15 14 9 9 11 9 9 9 9 13 7 7 11 10 9 11
29 35 24 40 44 44 45 46 46 43 46 44 43 46 45 44 41 37 35 30 28 26 28 18 19 19 17 19 18 15 16 16 12 15 11 14 10 15 10 10 9 11 12
42 33 36 38 43 44 45 46 46 46 46 46 43 44 45 44 44 44 40 37 34 30 29 30 21 21 21 20 22 20 21 15 18 13 20 15 14 13 17 16 15 11 13
50 44 44 47 49 46 45 45 47 47 43 43 43 43 44 44 43 45 46 41 40 37 35 32 30 30 25 21 22 21 19 22 20 17 15 17 18 19 18 14 15 17 14
46 40 44 37 49 50 47 45 44 44 44 42 44 45 46 47 46 44 42 44 41 42 40 37 33 30 28 24 23 23 23 21 26 24 23 23 22 21 21 20 20 22 21
15 26 25 23 43 46 47 46 42 43 43 44 45 46 47 46 43 44 44 41 48 44 41 38 36 34 31 29 27 25 26 24 23 25 26 26 25 25 24 24 22 19 18
3 8 7 27 30 26 44 45 45 43 44 44 46 42 43 43 44 44 43 43 43 45 44 41 38 37 36 32 26 25 26 27 27 25 26 27 24 24 22 24 27 26 25
9 10 11 11 14 27 16 42 44 43 42 45 43 43 43 45 46 45 44 43 44 44 44 42 40 40 39 36 29 28 27 27 27 27 27 26 25 24 24 22 21 22 22
22 14 14 17 9 5 38 33 38 41 41 43 42 43 45 46 47 47 46 45 43 45 44 44 42 41 41 39 35 32 31 31 30 29 28 28 26 24 25 24 24 24 24
34 22 15 16 19 18 13 6 33 39 44 41 45 44 46 46 47 48 48 47 45 44 45 44 42 43 43 41 37 34 36 36 36 34 33 33 31 30 26 28 32 31 30
24 29 23 18 17 20 24 21 15 32 42 38 45 45 43 47 48 49 47 46 46 48 46 45 43 43 43 41 40 37 35 40 40 38 37 36 35 35 34 34 34 35 33
21 26 22 23 19 20 23 26 30 25 35 40 37 39 43 45 45 44 44 44 45 44 44 42 42 43 43 42 40 38 38 39 38 37 37 35 32 29 27 27 29 31 25
22 20 20 16 17 18 22 27 31 37 29 32 40 41 42 43 44 43 43 43 42 43 39 41 39 40 43 42 40 38 37 38 40 39 35 31 26 23 22 22 25 24 22
17 17 11 9 9 14 11 16 32 30 36 27 37 40 40 43 41 43 43 43 42 42 42 38 39 36 35 39 37 36 37 36 38 38 37 36 29 24 23 24 25 24 26
18 18 12 6 10 13 9 9 16 29 32 39 36 40 41 42 43 40 43 44 43 44 39 39 34 33 33 30 32 28 25 29 33 34 35 36 35 33 35 37 35 34 32
16 17 16 9 8 9 7 7 13 18 29 34 37 38 39 41 42 43 39 43 42 42 43 37 35 30 28 29 31 29 28 24 22 26 32 34 36 39 38 37 35 34 32
15 20 19 15 11 14 8 3 8 12 17 23 30 33 34 36 40 42 38 39 37 37 36 33 27 31 31 29 28 29 32 27 22 19 24 32 33 33 34 33 29 25 27
Wind_Direction
185 176 182 179 174 177 181 180 179 188 185 185 176 172 189 199 177 203 233 169 175 193 161 160 167 181 176 166 152 161 123 113 146 129 115 179 164 149 220 186 144 62 115
181 178 186 182 183 179 185 184 183 194 195 188 170 182 181 196 181 193 163 175 198 199 179 125 147 211 138 159 175 179 149 108 185 188 353 207 203 209 135 151 200 97 246
182 178 187 185 186 183 191 188 188 198 200 183 177 187 193 198 191 191 213 200 186 217 172 174 182 177 169 192 184 157 167 175 179 292 15 75 61 140 189 111 214 322 163
187 179 186 189 188 185 193 196 192 199 203 183 190 190 192 190 194 206 206 204 194 204 203 212 191 190 196 199 202 189 204 192 150 236 188 318 78 79 95 197 201 282 199
189 182 186 192 190 188 190 200 200 197 206 190 191 188 193 198 202 208 194 204 196 197 199 229 215 198 178 201 185 195 208 205 234 200 187 178 184 269 308 238 203 123 203
191 188 188 190 191 190 190 198 205 205 207 199 189 197 191 193 199 203 188 194 207 206 197 223 235 212 189 226 214 199 201 192 198 171 192 150 179 253 263 268 139 160 159
189 187 186 188 192 191 191 195 206 210 210 207 197 196 203 190 198 204 196 200 212 210 197 214 229 226 204 213 208 202 187 202 206 199 193 193 198 291 6 127 17 113 181
187 189 189 192 191 194 193 193 203 211 212 211 206 204 205 198 199 198 208 198 209 221 223 211 223 233 208 222 213 231 207 202 212 205 200 206 167 271 290 295 311 309 298
250 192 193 193 194 194 196 196 200 212 215 212 214 208 213 210 201 201 199 212 203 220 226 214 224 239 221 225 237 221 222 228 225 211 208 206 191 206 260 260 277 291 302
237 264 192 194 197 197 199 198 201 210 215 218 216 217 214 217 212 203 206 206 208 202 214 227 237 238 219 221 231 222 242 234 229 216 235 233 220 192 245 242 240 257 272
204 244 266 197 198 198 199 201 201 206 210 216 220 219 221 219 217 215 211 214 203 210 216 209 223 238 226 221 228 224 215 240 243 219 229 251 258 216 205 244 258 250 251
194 193 245 242 194 197 199 201 202 204 211 214 214 219 222 223 222 217 218 214 215 207 216 220 220 227 230 227 227 231 213 233 235 242 218 225 247 247 226 219 226 236 249
181 180 195 226 190 193 198 200 203 205 207 207 210 211 215 221 225 223 218 221 219 218 217 225 226 232 236 231 232 234 228 213 237 241 244 243 244 244 248 244 246 253 266
176 181 193 217 186 187 194 198 202 203 205 209 209 210 214 216 222 225 224 215 223 223 225 228 235 235 237 236 234 236 238 231 225 234 240 242 247 253 256 257 253 254 256
248 237 235 193 184 182 191 196 200 202 204 207 211 214 213 213 216 219 227 223 220 228 229 233 234 237 237 237 236 236 237 241 241 234 239 246 248 251 254 261 266 269 277
222 329 349 227 178 208 191 196 199 202 203 208 211 212 212 215 214 217 218 226 224 226 231 234 235 236 237 239 235 239 239 237 244 247 241 242 249 258 260 256 257 260 257
23 8 349 32 185 177 212 195 200 203 205 208 210 210 211 214 218 216 218 218 225 225 230 233 235 236 237 238 233 236 243 244 244 250 253 253 252 253 260 266 269 271 272
347 349 336 334 354 138 227 221 206 205 207 211 211 211 211 215 218 218 217 220 219 224 229 235 235 236 238 240 238 233 238 245 249 251 253 254 258 246 247 262 269 273 276
340 329 325 320 310 285 256 248 206 213 212 213 216 214 215 214 218 221 222 219 218 223 227 235 237 236 238 241 243 240 235 239 245 249 250 252 257 264 258 251 252 257 260
315 316 313 301 290 278 260 262 239 215 215 218 217 217 218 216 219 223 225 223 221 226 230 234 237 239 242 244 247 246 241 241 244 250 256 257 256 258 261 265 269 269 272
308 303 303 295 279 277 266 255 238 231 230 227 221 216 215 220 216 221 223 224 222 223 226 232 236 240 243 246 249 248 244 244 247 251 257 262 264 264 264 265 266 272 284
320 318 305 300 316 298 264 252 244 224 224 229 219 217 217 217 214 217 219 222 221 221 222 229 230 236 244 248 248 248 246 247 246 248 256 265 268 274 277 273 275 279 280
334 329 330 292 268 271 274 258 249 249 231 231 225 216 214 213 213 214 217 218 220 222 224 223 231 227 236 245 250 250 249 247 246 248 248 242 242 252 258 261 264 264 266
354 352 345 305 309 301 288 247 225 228 235 224 226 217 210 210 211 214 217 218 219 221 218 220 222 232 226 231 245 248 250 250 246 246 246 247 246 248 251 255 259 264 270
0 351 6 17 4 355 341 250 225 213 222 215 215 205 207 209 212 214 215 217 218 220 219 216 221 219 226 233 227 242 245 251 253 250 246 245 242 243 247 252 259 266 272
360 360 359 7 360 4 14 248 222 196 186 197 196 199 203 206 209 212 213 212 219 216 221 218 217 214 220 225 228 230 240 246 246 242 249 249 249 252 253 256 260 260 264
Height
1516 1520 1526 1533 1538 1542 1548 1554 1559 1561 1567 1570 1574 1578 1580 1583 1586 1588 1589 1591 1593 1594 1597 1598 1600 1600 1601 1603 1604 1605 1607 1608 1609 1610 1611 1611 1612 1613 1612 1612 1613 1613 1611
1511 1516 1523 1529 1535 1539 1544 1551 1556 1559 1564 1568 1572 1577 1579 1582 1584 1586 1587 1590 1592 1594 1596 1597 1600 1600 1602 1603 1604 1604 1606 1608 1609 1610 1611 1612 1613 1613 1613 1615 1615 1615 1614
1503 1510 1518 1524 1530 1534 1539 1546 1553 1555 1561 1567 1571 1574 1578 1581 1583 1585 1587 1589 1592 1594 1595 1598 1598 1600 1601 1602 1604 1605 1606 1607 1609 1611 1612 1612 1612 1613 1614 1615 1615 1616 1616
1499 1505 1513 1520 1525 1529 1535 1542 1549 1553 1558 1564 1568 1572 1575 1579 1582 1584 1586 1588 1590 1593 1594 1596 1598 1599 1601 1602 1604 1606 1607 1607 1609 1611 1612 1612 1613 1612 1613 1614 1614 1614 1615
1493 1497 1504 1512 1520 1525 1529 1536 1544 1549 1554 1560 1565 1569 1573 1576 1580 1582 1584 1586 1589 1592 1594 1595 1597 1598 1600 1601 1603 1604 1606 1607 1609 1610 1611 1612 1612 1613 1612 1613 1613 1613 1614
1486 1492 1498 1508 1515 1521 1526 1531 1537 1543 1549 1555 1560 1565 1570 1574 1578 1581 1581 1584 1587 1590 1593 1594 1596 1597 1598 1600 1602 1602 1604 1606 1607 1608 1609 1611 1612 1613 1612 1613 1612 1612 1613
1480 1486 1493 1500 1508 1514 1519 1524 1530 1537 1543 1549 1556 1560 1565 1570 1574 1578 1580 1583 1584 1587 1589 1592 1594 1596 1597 1598 1600 1601 1602 1604 1606 1607 1608 1610 1613 1612 1612 1611 1613 1612 1613
1470 1479 1485 1490 1497 1504 1511 1517 1521 1529 1535 1543 1549 1555 1560 1566 1570 1574 1578 1581 1583 1585 1586 1588 1591 1593 1595 1597 1598 1600 1601 1603 1604 1606 1607 1608 1609 1611 1612 1612 1613 1612 1612
1468 1475 1480 1486 1491 1498 1503 1508 1513 1521 1528 1534 1541 1549 1554 1560 1565 1570 1574 1577 1580 1583 1584 1587 1589 1591 1593 1595 1597 1599 1600 1601 1602 1604 1606 1607 1608 1609 1612 1612 1612 1613 1611
1466 1481 1478 1483 1486 1491 1498 1506 1511 1514 1521 1529 1535 1540 1547 1553 1560 1565 1568 1572 1576 1580 1582 1584 1586 1588 1591 1594 1595 1597 1598 1599 1601 1602 1603 1605 1607 1607 1610 1611 1611 1612 1612
1467 1469 1480 1479 1482 1489 1494 1499 1506 1511 1516 1522 1528 1534 1539 1546 1553 1558 1563 1567 1572 1575 1579 1581 1582 1584 1587 1590 1592 1594 1596 1598 1599 1600 1602 1602 1604 1604 1605 1608 1608 1609 1609
1447 1469 1467 1472 1475 1480 1487 1491 1498 1504 1507 1514 1522 1527 1533 1539 1545 1551 1556 1561 1565 1570 1573 1576 1578 1581 1583 1585 1587 1589 1592 1594 1596 1597 1599 1600 1601 1601 1602 1603 1604 1605 1606
1437 1440 1445 1455 1458 1467 1477 1483 1490 1495 1503 1510 1515 1522 1526 1531 1536 1542 1549 1553 1558 1563 1567 1570 1573 1576 1579 1581 1583 1585 1588 1590 1592 1593 1594 1596 1597 1597 1598 1599 1600 1601 1602
1430 1431 1436 1445 1445 1450 1464 1474 1482 1489 1496 1501 1507 1512 1516 1521 1527 1533 1540 1546 1550 1555 1560 1564 1567 1570 1573 1576 1578 1580 1582 1585 1587 1589 1591 1592 1592 1593 1594 1594 1595 1596 1597
1425 1427 1429 1433 1435 1440 1453 1464 1475 1481 1488 1494 1497 1501 1509 1517 1523 1527 1531 1538 1543 1547 1553 1557 1561 1564 1567 1570 1573 1575 1577 1579 1582 1584 1586 1587 1588 1588 1589 1590 1591 1592 1592
1425 1428 1430 1430 1432 1448 1449 1460 1468 1474 1480 1485 1489 1497 1505 1511 1516 1521 1526 1530 1536 1540 1545 1549 1553 1557 1559 1563 1567 1570 1572 1574 1576 1578 1581 1582 1583 1584 1585 1586 1587 1588 1588
1428 1431 1433 1438 1437 1432 1448 1453 1462 1471 1474 1479 1484 1490 1496 1501 1506 1514 1519 1524 1528 1534 1537 1541 1545 1549 1552 1556 1561 1564 1566 1569 1570 1572 1574 1576 1577 1578 1579 1580 1581 1581 1582
1440 1438 1439 1438 1449 1444 1452 1457 1460 1467 1469 1472 1477 1482 1487 1492 1499 1506 1511 1516 1522 1526 1530 1533 1537 1541 1544 1549 1554 1558 1560 1562 1564 1566 1568 1569 1570 1572 1575 1575 1574 1574 1575
1444 1446 1444 1442 1442 1442 1443 1451 1455 1457 1462 1465 1468 1473 1478 1485 1490 1495 1501 1508 1515 1519 1522 1526 1529 1532 1536 1541 1546 1551 1553 1555 1556 1559 1561 1563 1564 1565 1568 1570 1569 1569 1569
1453 1452 1447 1444 1445 1444 1443 1446 1448 1452 1451 1454 1459 1466 1472 1478 1481 1487 1493 1500 1506 1510 1515 1518 1521 1525 1529 1534 1538 1543 1546 1547 1549 1552 1553 1555 1557 1559 1560 1560 1561 1560 1562
1460 1455 1446 1443 1441 1441 1443 1441 1442 1442 1444 1448 1454 1460 1466 1470 1476 1482 1487 1492 1498 1504 1508 1512 1516 1519 1521 1524 1529 1534 1537 1539 1541 1543 1545 1546 1549 1551 1553 1554 1553 1553 1556
1454 1448 1445 1439 1438 1435 1435 1433 1433 1436 1440 1443 1446 1452 1458 1465 1471 1475 1480 1485 1491 1496 1501 1504 1508 1511 1513 1516 1519 1524 1528 1532 1534 1536 1538 1540 1542 1543 1545 1547 1548 1549 1549
1454 1450 1442 1433 1429 1428 1427 1425 1427 1429 1433 1438 1438 1444 1451 1457 1463 1468 1472 1477 1482 1487 1491 1496 1498 1502 1505 1508 1511 1515 1518 1522 1524 1527 1531 1534 1536 1539 1540 1541 1542 1544 1543
1450 1443 1436 1428 1426 1426 1424 1420 1420 1422 1426 1431 1433 1437 1442 1447 1454 1461 1465 1469 1473 1477 1482 1486 1491 1493 1499 1502 1503 1506 1509 1512 1515 1518 1521 1524 1527 1530 1531 1532 1534 1535 1536
1450 1447 1438 1428 1426 1426 1423 1419 1417 1416 1418 1422 1427 1431 1435 1440 1446 1452 1456 1459 1463 1467 1471 1476 1481 1487 1489 1491 1496 1497 1500 1504 1506 1510 1513 1514 1517 1519 1522 1524 1526 1527 1529
1449 1442 1434 1429 1429 1427 1422 1417 1416 1414 1415 1419 1422 1425 1430 1434 1439 1444 1448 1453 1458 1462 1466 1471 1477 1479 1482 1484 1488 1491 1493 1497 1502 1504 1505 1506 1509 1511 1514 1517 1519 1521 1522